Year,Month,Day,Hour,Minute,Value (Times are PST for temperature in C)
2014,09,21,00,00,16.40
2014,09,21,00,01,16.30
2014,09,21,00,02,16.30
2014,09,21,00,03,16.30
2014,09,21,00,04,16.20
2014,09,21,00,05,16.20
2014,09,21,00,06,16.20
2014,09,21,00,07,16.20
2014,09,21,00,08,16.20
2014,09,21,00,09,16.20
2014,09,21,00,10,16.20
2014,09,21,00,11,16.20
2014,09,21,00,12,16.20
2014,09,21,00,13,16.20
2014,09,21,00,14,16.30
2014,09,21,00,15,16.30
2014,09,21,00,16,16.30
2014,09,21,00,17,16.40
2014,09,21,00,18,16.40
2014,09,21,00,19,16.50
2014,09,21,00,20,16.50
2014,09,21,00,21,16.60
2014,09,21,00,22,16.60
2014,09,21,00,23,16.60
2014,09,21,00,24,16.50
2014,09,21,00,25,16.50
2014,09,21,00,26,16.50
2014,09,21,00,27,16.40
2014,09,21,00,28,16.40
2014,09,21,00,29,16.50
2014,09,21,00,30,16.50
2014,09,21,00,31,16.50
2014,09,21,00,32,16.50
2014,09,21,00,33,16.50
2014,09,21,00,34,16.50
2014,09,21,00,35,16.40
2014,09,21,00,36,16.40
2014,09,21,00,37,16.40
2014,09,21,00,38,16.30
2014,09,21,00,39,16.30
2014,09,21,00,40,16.30
2014,09,21,00,41,16.30
2014,09,21,00,42,16.30
2014,09,21,00,43,16.30
2014,09,21,00,44,16.30
2014,09,21,00,45,16.20
2014,09,21,00,46,16.20
2014,09,21,00,47,16.20
2014,09,21,00,48,16.20
2014,09,21,00,49,16.10
2014,09,21,00,50,16.10
2014,09,21,00,51,16.10
2014,09,21,00,52,16.10
2014,09,21,00,53,16.10
2014,09,21,00,54,16.10
2014,09,21,00,55,16.20
2014,09,21,00,56,16.30
2014,09,21,00,57,16.30
2014,09,21,00,58,16.30
2014,09,21,00,59,16.30
2014,09,21,01,00,16.30
2014,09,21,01,01,16.20
2014,09,21,01,02,16.20
2014,09,21,01,03,16.20
2014,09,21,01,04,16.10
2014,09,21,01,05,16.10
2014,09,21,01,06,16.00
2014,09,21,01,07,16.00
2014,09,21,01,08,15.90
2014,09,21,01,09,15.90
2014,09,21,01,10,15.90
2014,09,21,01,11,16.00
2014,09,21,01,12,16.00
2014,09,21,01,13,16.10
2014,09,21,01,14,16.10
2014,09,21,01,15,16.10
2014,09,21,01,16,16.20
2014,09,21,01,17,16.30
2014,09,21,01,18,16.30
2014,09,21,01,19,16.30
2014,09,21,01,20,16.30
2014,09,21,01,21,16.30
2014,09,21,01,22,16.20
2014,09,21,01,23,16.20
2014,09,21,01,24,16.10
2014,09,21,01,25,16.10
2014,09,21,01,26,16.00
2014,09,21,01,27,15.90
2014,09,21,01,28,15.90
2014,09,21,01,29,15.80
2014,09,21,01,30,15.80
2014,09,21,01,31,15.90
2014,09,21,01,32,15.90
2014,09,21,01,33,16.00
2014,09,21,01,34,16.10
2014,09,21,01,35,16.20
2014,09,21,01,36,16.30
2014,09,21,01,37,16.40
2014,09,21,01,38,16.50
2014,09,21,01,39,16.50
2014,09,21,01,40,16.60
2014,09,21,01,41,16.60
2014,09,21,01,42,16.60
2014,09,21,01,43,16.60
2014,09,21,01,44,16.60
2014,09,21,01,45,16.70
2014,09,21,01,46,16.70
2014,09,21,01,47,16.70
2014,09,21,01,48,16.70
2014,09,21,01,49,16.70
2014,09,21,01,50,16.70
2014,09,21,01,51,16.70
2014,09,21,01,52,16.60
2014,09,21,01,53,16.60
2014,09,21,01,54,16.60
2014,09,21,01,55,16.50
2014,09,21,01,56,16.50
2014,09,21,01,57,16.40
2014,09,21,01,58,16.30
2014,09,21,01,59,16.30
2014,09,21,02,00,16.20
2014,09,21,02,01,16.10
2014,09,21,02,02,16.10
2014,09,21,02,03,16.10
2014,09,21,02,04,16.10
2014,09,21,02,05,16.10
2014,09,21,02,06,16.10
2014,09,21,02,07,16.10
2014,09,21,02,08,16.10
2014,09,21,02,09,16.20
2014,09,21,02,10,16.20
2014,09,21,02,11,16.20
2014,09,21,02,12,16.30
2014,09,21,02,13,16.30
2014,09,21,02,14,16.40
2014,09,21,02,15,16.40
2014,09,21,02,16,16.40
2014,09,21,02,17,16.40
2014,09,21,02,18,16.40
2014,09,21,02,19,16.40
2014,09,21,02,20,16.30
2014,09,21,02,21,16.20
2014,09,21,02,22,16.10
2014,09,21,02,23,16.00
2014,09,21,02,24,15.80
2014,09,21,02,25,15.80
2014,09,21,02,26,15.70
2014,09,21,02,27,15.70
2014,09,21,02,28,15.70
2014,09,21,02,29,15.70
2014,09,21,02,30,15.70
2014,09,21,02,31,15.80
2014,09,21,02,32,15.70
2014,09,21,02,33,15.70
2014,09,21,02,34,15.60
2014,09,21,02,35,15.60
2014,09,21,02,36,15.50
2014,09,21,02,37,15.40
2014,09,21,02,38,15.30
2014,09,21,02,39,15.30
2014,09,21,02,40,15.20
2014,09,21,02,41,15.10
2014,09,21,02,42,15.10
2014,09,21,02,43,15.10
2014,09,21,02,44,15.00
2014,09,21,02,45,15.00
2014,09,21,02,46,15.00
2014,09,21,02,47,15.00
2014,09,21,02,48,15.00
2014,09,21,02,49,15.00
2014,09,21,02,50,15.00
2014,09,21,02,51,15.00
2014,09,21,02,52,15.00
2014,09,21,02,53,15.00
2014,09,21,02,54,15.00
2014,09,21,02,55,15.00
2014,09,21,02,56,15.00
2014,09,21,02,57,15.00
2014,09,21,02,58,15.10
2014,09,21,02,59,15.10
2014,09,21,03,00,15.10
2014,09,21,03,01,15.20
2014,09,21,03,02,15.30
2014,09,21,03,03,15.40
2014,09,21,03,04,15.40
2014,09,21,03,05,15.50
2014,09,21,03,06,15.60
2014,09,21,03,07,15.70
2014,09,21,03,08,15.80
2014,09,21,03,09,15.90
2014,09,21,03,10,16.00
2014,09,21,03,11,16.10
2014,09,21,03,12,16.10
2014,09,21,03,13,16.10
2014,09,21,03,14,16.10
2014,09,21,03,15,16.10
2014,09,21,03,16,16.20
2014,09,21,03,17,16.20
2014,09,21,03,18,16.30
2014,09,21,03,19,16.40
2014,09,21,03,20,16.50
2014,09,21,03,21,16.60
2014,09,21,03,22,16.70
2014,09,21,03,23,16.80
2014,09,21,03,24,16.80
2014,09,21,03,25,16.90
2014,09,21,03,26,16.90
2014,09,21,03,27,16.90
2014,09,21,03,28,16.90
2014,09,21,03,29,16.90
2014,09,21,03,30,16.90
2014,09,21,03,31,16.90
2014,09,21,03,32,17.00
2014,09,21,03,33,17.00
2014,09,21,03,34,17.10
2014,09,21,03,35,17.20
2014,09,21,03,36,17.30
2014,09,21,03,37,17.30
2014,09,21,03,38,17.40
2014,09,21,03,39,17.40
2014,09,21,03,40,17.40
2014,09,21,03,41,17.40
2014,09,21,03,42,17.50
2014,09,21,03,43,17.40
2014,09,21,03,44,17.40
2014,09,21,03,45,17.40
2014,09,21,03,46,17.40
2014,09,21,03,47,17.40
2014,09,21,03,48,17.40
2014,09,21,03,49,17.30
2014,09,21,03,50,17.30
2014,09,21,03,51,17.30
2014,09,21,03,52,17.30
2014,09,21,03,53,17.20
2014,09,21,03,54,17.20
2014,09,21,03,55,17.20
2014,09,21,03,56,17.20
2014,09,21,03,57,17.10
2014,09,21,03,58,17.10
2014,09,21,03,59,17.10
2014,09,21,04,00,17.00
2014,09,21,04,01,17.00
2014,09,21,04,02,16.90
2014,09,21,04,03,16.90
2014,09,21,04,04,16.90
2014,09,21,04,05,16.90
2014,09,21,04,06,16.90
2014,09,21,04,07,16.90
2014,09,21,04,08,16.90
2014,09,21,04,09,16.90
2014,09,21,04,10,17.00
2014,09,21,04,11,17.00
2014,09,21,04,12,17.00
2014,09,21,04,13,17.10
2014,09,21,04,14,17.10
2014,09,21,04,15,17.10
2014,09,21,04,16,17.10
2014,09,21,04,17,17.10
2014,09,21,04,18,17.10
2014,09,21,04,19,17.10
2014,09,21,04,20,17.10
2014,09,21,04,21,17.20
2014,09,21,04,22,17.20
2014,09,21,04,23,17.10
2014,09,21,04,24,17.10
2014,09,21,04,25,17.00
2014,09,21,04,26,16.90
2014,09,21,04,27,16.70
2014,09,21,04,28,16.50
2014,09,21,04,29,16.40
2014,09,21,04,30,16.30
2014,09,21,04,31,16.30
2014,09,21,04,32,16.30
2014,09,21,04,33,16.30
2014,09,21,04,34,16.30
2014,09,21,04,35,16.40
2014,09,21,04,36,16.40
2014,09,21,04,37,16.50
2014,09,21,04,38,16.50
2014,09,21,04,39,16.50
2014,09,21,04,40,16.50
2014,09,21,04,41,16.50
2014,09,21,04,42,16.50
2014,09,21,04,43,16.50
2014,09,21,04,44,16.50
2014,09,21,04,45,16.40
2014,09,21,04,46,16.40
2014,09,21,04,47,16.30
2014,09,21,04,48,16.20
2014,09,21,04,49,16.00
2014,09,21,04,50,15.90
2014,09,21,04,51,15.90
2014,09,21,04,52,16.00
2014,09,21,04,53,16.10
2014,09,21,04,54,16.20
2014,09,21,04,55,16.20
2014,09,21,04,56,16.20
2014,09,21,04,57,16.10
2014,09,21,04,58,16.10
2014,09,21,04,59,16.20
2014,09,21,05,00,16.30
2014,09,21,05,01,16.40
2014,09,21,05,02,16.40
2014,09,21,05,03,16.50
2014,09,21,05,04,16.50
2014,09,21,05,05,16.50
2014,09,21,05,06,16.60
2014,09,21,05,07,16.60
2014,09,21,05,08,16.60
2014,09,21,05,09,16.70
2014,09,21,05,10,16.70
2014,09,21,05,11,16.70
2014,09,21,05,12,16.80
2014,09,21,05,13,16.80
2014,09,21,05,14,16.80
2014,09,21,05,15,16.80
2014,09,21,05,16,16.80
2014,09,21,05,17,16.70
2014,09,21,05,18,16.60
2014,09,21,05,19,16.50
2014,09,21,05,20,16.50
2014,09,21,05,21,16.40
2014,09,21,05,22,16.30
2014,09,21,05,23,16.30
2014,09,21,05,24,16.40
2014,09,21,05,25,16.40
2014,09,21,05,26,16.50
2014,09,21,05,27,16.60
2014,09,21,05,28,16.70
2014,09,21,05,29,16.80
2014,09,21,05,30,16.90
2014,09,21,05,31,17.00
2014,09,21,05,32,17.10
2014,09,21,05,33,17.10
2014,09,21,05,34,17.00
2014,09,21,05,35,17.00
2014,09,21,05,36,16.90
2014,09,21,05,37,16.80
2014,09,21,05,38,16.80
2014,09,21,05,39,16.70
2014,09,21,05,40,16.60
2014,09,21,05,41,16.50
2014,09,21,05,42,16.40
2014,09,21,05,43,16.40
2014,09,21,05,44,16.40
2014,09,21,05,45,16.50
2014,09,21,05,46,16.50
2014,09,21,05,47,16.50
2014,09,21,05,48,16.40
2014,09,21,05,49,16.40
2014,09,21,05,50,16.40
2014,09,21,05,51,16.50
2014,09,21,05,52,16.50
2014,09,21,05,53,16.50
2014,09,21,05,54,16.50
2014,09,21,05,55,16.50
2014,09,21,05,56,16.50
2014,09,21,05,57,16.40
2014,09,21,05,58,16.30
2014,09,21,05,59,16.20
2014,09,21,06,00,16.10
2014,09,21,06,01,16.10
2014,09,21,06,02,16.00
2014,09,21,06,03,15.90
2014,09,21,06,04,15.90
2014,09,21,06,05,15.80
2014,09,21,06,06,15.80
2014,09,21,06,07,15.80
2014,09,21,06,08,15.80
2014,09,21,06,09,15.80
2014,09,21,06,10,15.70
2014,09,21,06,11,15.70
2014,09,21,06,12,15.70
2014,09,21,06,13,15.80
2014,09,21,06,14,15.80
2014,09,21,06,15,15.90
2014,09,21,06,16,15.90
2014,09,21,06,17,15.90
2014,09,21,06,18,16.00
2014,09,21,06,19,16.10
2014,09,21,06,20,16.10
2014,09,21,06,21,16.20
2014,09,21,06,22,16.20
2014,09,21,06,23,16.30
2014,09,21,06,24,16.30
2014,09,21,06,25,16.40
2014,09,21,06,26,16.40
2014,09,21,06,27,16.50
2014,09,21,06,28,16.50
2014,09,21,06,29,16.60
2014,09,21,06,30,16.60
2014,09,21,06,31,16.60
2014,09,21,06,32,16.70
2014,09,21,06,33,16.70
2014,09,21,06,34,16.70
2014,09,21,06,35,16.70
2014,09,21,06,36,16.80
2014,09,21,06,37,16.80
2014,09,21,06,38,16.80
2014,09,21,06,39,16.80
2014,09,21,06,40,16.80
2014,09,21,06,41,16.80
2014,09,21,06,42,16.70
2014,09,21,06,43,16.70
2014,09,21,06,44,16.60
2014,09,21,06,45,16.60
2014,09,21,06,46,16.50
2014,09,21,06,47,16.40
2014,09,21,06,48,16.40
2014,09,21,06,49,16.30
2014,09,21,06,50,16.30
2014,09,21,06,51,16.20
2014,09,21,06,52,16.20
2014,09,21,06,53,16.20
2014,09,21,06,54,16.10
2014,09,21,06,55,16.10
2014,09,21,06,56,16.10
2014,09,21,06,57,16.10
2014,09,21,06,58,16.00
2014,09,21,06,59,16.00
2014,09,21,07,00,16.00
2014,09,21,07,01,15.90
2014,09,21,07,02,15.90
2014,09,21,07,03,15.90
2014,09,21,07,04,15.90
2014,09,21,07,05,15.90
2014,09,21,07,06,15.80
2014,09,21,07,07,15.80
2014,09,21,07,08,15.80
2014,09,21,07,09,15.80
2014,09,21,07,10,15.70
2014,09,21,07,11,15.70
2014,09,21,07,12,15.60
2014,09,21,07,13,15.60
2014,09,21,07,14,15.50
2014,09,21,07,15,15.40
2014,09,21,07,16,15.40
2014,09,21,07,17,15.30
2014,09,21,07,18,15.30
2014,09,21,07,19,15.30
2014,09,21,07,20,15.30
2014,09,21,07,21,15.30
2014,09,21,07,22,15.30
2014,09,21,07,23,15.30
2014,09,21,07,24,15.40
2014,09,21,07,25,15.40
2014,09,21,07,26,15.50
2014,09,21,07,27,15.60
2014,09,21,07,28,15.60
2014,09,21,07,29,15.70
2014,09,21,07,30,15.70
2014,09,21,07,31,15.70
2014,09,21,07,32,15.70
2014,09,21,07,33,15.70
2014,09,21,07,34,15.70
2014,09,21,07,35,15.80
2014,09,21,07,36,15.80
2014,09,21,07,37,15.80
2014,09,21,07,38,15.80
2014,09,21,07,39,15.80
2014,09,21,07,40,15.80
2014,09,21,07,41,15.90
2014,09,21,07,42,15.90
2014,09,21,07,43,15.90
2014,09,21,07,44,16.00
2014,09,21,07,45,16.10
2014,09,21,07,46,16.10
2014,09,21,07,47,16.20
2014,09,21,07,48,16.20
2014,09,21,07,49,16.20
2014,09,21,07,50,16.30
2014,09,21,07,51,16.30
2014,09,21,07,52,16.30
2014,09,21,07,53,16.30
2014,09,21,07,54,16.30
2014,09,21,07,55,16.40
2014,09,21,07,56,16.40
2014,09,21,07,57,16.50
2014,09,21,07,58,16.50
2014,09,21,07,59,16.60
2014,09,21,08,00,16.60
2014,09,21,08,01,16.60
2014,09,21,08,02,16.70
2014,09,21,08,03,16.70
2014,09,21,08,04,16.70
2014,09,21,08,05,16.70
2014,09,21,08,06,16.70
2014,09,21,08,07,16.60
2014,09,21,08,08,16.60
2014,09,21,08,09,16.60
2014,09,21,08,10,16.70
2014,09,21,08,11,16.70
2014,09,21,08,12,16.70
2014,09,21,08,13,16.70
2014,09,21,08,14,16.80
2014,09,21,08,15,16.80
2014,09,21,08,16,16.90
2014,09,21,08,17,16.90
2014,09,21,08,18,17.00
2014,09,21,08,19,17.10
2014,09,21,08,20,17.10
2014,09,21,08,21,17.20
2014,09,21,08,22,17.30
2014,09,21,08,23,17.30
2014,09,21,08,24,17.30
2014,09,21,08,25,17.30
2014,09,21,08,26,17.40
2014,09,21,08,27,17.40
2014,09,21,08,28,17.40
2014,09,21,08,29,17.40
2014,09,21,08,30,17.40
2014,09,21,08,31,17.40
2014,09,21,08,32,17.40
2014,09,21,08,33,17.30
2014,09,21,08,34,17.30
2014,09,21,08,35,17.30
2014,09,21,08,36,17.40
2014,09,21,08,37,17.40
2014,09,21,08,38,17.40
2014,09,21,08,39,17.40
2014,09,21,08,40,17.40
2014,09,21,08,41,17.40
2014,09,21,08,42,17.50
2014,09,21,08,43,17.50
2014,09,21,08,44,17.60
2014,09,21,08,45,17.70
2014,09,21,08,46,17.70
2014,09,21,08,47,17.80
2014,09,21,08,48,17.90
2014,09,21,08,49,17.90
2014,09,21,08,50,18.00
2014,09,21,08,51,18.00
2014,09,21,08,52,18.10
2014,09,21,08,53,18.20
2014,09,21,08,54,18.20
2014,09,21,08,55,18.20
2014,09,21,08,56,18.30
2014,09,21,08,57,18.30
2014,09,21,08,58,18.40
2014,09,21,08,59,18.40
2014,09,21,09,00,18.50
2014,09,21,09,01,18.60
2014,09,21,09,02,18.60
2014,09,21,09,03,18.50
2014,09,21,09,04,18.40
2014,09,21,09,05,18.30
2014,09,21,09,06,18.20
2014,09,21,09,07,18.20
2014,09,21,09,08,18.20
2014,09,21,09,09,18.20
2014,09,21,09,10,18.30
2014,09,21,09,11,18.40
2014,09,21,09,12,18.40
2014,09,21,09,13,18.50
2014,09,21,09,14,18.60
2014,09,21,09,15,18.70
2014,09,21,09,16,18.70
2014,09,21,09,17,18.80
2014,09,21,09,18,18.80
2014,09,21,09,19,18.70
2014,09,21,09,20,18.70
2014,09,21,09,21,18.70
2014,09,21,09,22,18.70
2014,09,21,09,23,18.80
2014,09,21,09,24,18.80
2014,09,21,09,25,18.90
2014,09,21,09,26,18.90
2014,09,21,09,27,19.00
2014,09,21,09,28,19.10
2014,09,21,09,29,19.20
2014,09,21,09,30,19.30
2014,09,21,09,31,19.30
2014,09,21,09,32,19.40
2014,09,21,09,33,19.40
2014,09,21,09,34,19.40
2014,09,21,09,35,19.50
2014,09,21,09,36,19.50
2014,09,21,09,37,19.60
2014,09,21,09,38,19.70
2014,09,21,09,39,19.80
2014,09,21,09,40,19.90
2014,09,21,09,41,20.10
2014,09,21,09,42,20.20
2014,09,21,09,43,20.40
2014,09,21,09,44,20.50
2014,09,21,09,45,20.80
2014,09,21,09,46,21.00
2014,09,21,09,47,21.20
2014,09,21,09,48,21.30
2014,09,21,09,49,21.50
2014,09,21,09,50,21.70
2014,09,21,09,51,21.90
2014,09,21,09,52,22.10
2014,09,21,09,53,22.20
2014,09,21,09,54,22.40
2014,09,21,09,55,22.50
2014,09,21,09,56,22.50
2014,09,21,09,57,22.60
2014,09,21,09,58,22.60
2014,09,21,09,59,22.50
2014,09,21,10,00,22.60
2014,09,21,10,01,22.70
2014,09,21,10,02,22.70
2014,09,21,10,03,22.80
2014,09,21,10,04,22.80
2014,09,21,10,05,22.80
2014,09,21,10,06,22.80
2014,09,21,10,07,22.80
2014,09,21,10,08,22.80
2014,09,21,10,09,22.80
2014,09,21,10,10,22.90
2014,09,21,10,11,22.90
2014,09,21,10,12,23.00
2014,09,21,10,13,23.10
2014,09,21,10,14,23.10
2014,09,21,10,15,23.10
2014,09,21,10,16,23.10
2014,09,21,10,17,23.10
2014,09,21,10,18,23.10
2014,09,21,10,19,23.20
2014,09,21,10,20,23.10
2014,09,21,10,21,23.10
2014,09,21,10,22,23.10
2014,09,21,10,23,23.20
2014,09,21,10,24,23.20
2014,09,21,10,25,23.20
2014,09,21,10,26,23.30
2014,09,21,10,27,23.40
2014,09,21,10,28,23.40
2014,09,21,10,29,23.40
2014,09,21,10,30,23.40
2014,09,21,10,31,23.30
2014,09,21,10,32,23.40
2014,09,21,10,33,23.40
2014,09,21,10,34,23.50
2014,09,21,10,35,23.50
2014,09,21,10,36,23.50
2014,09,21,10,37,23.50
2014,09,21,10,38,23.60
2014,09,21,10,39,23.70
2014,09,21,10,40,23.80
2014,09,21,10,41,23.80
2014,09,21,10,42,23.90
2014,09,21,10,43,23.90
2014,09,21,10,44,24.00
2014,09,21,10,45,23.90
2014,09,21,10,46,24.00
2014,09,21,10,47,24.00
2014,09,21,10,48,23.90
2014,09,21,10,49,23.90
2014,09,21,10,50,23.90
2014,09,21,10,51,23.90
2014,09,21,10,52,23.90
2014,09,21,10,53,23.90
2014,09,21,10,54,23.90
2014,09,21,10,55,23.90
2014,09,21,10,56,24.00
2014,09,21,10,57,24.00
2014,09,21,10,58,24.10
2014,09,21,10,59,24.00
2014,09,21,11,00,24.00
2014,09,21,11,01,24.10
2014,09,21,11,02,24.10
2014,09,21,11,03,24.20
2014,09,21,11,04,24.20
2014,09,21,11,05,24.20
2014,09,21,11,06,24.30
2014,09,21,11,07,24.30
2014,09,21,11,08,24.40
2014,09,21,11,09,24.40
2014,09,21,11,10,24.50
2014,09,21,11,11,24.60
2014,09,21,11,12,24.70
2014,09,21,11,13,24.80
2014,09,21,11,14,24.70
2014,09,21,11,15,24.30
2014,09,21,11,16,24.00
2014,09,21,11,17,23.70
2014,09,21,11,18,23.40
2014,09,21,11,19,23.20
2014,09,21,11,20,23.00
2014,09,21,11,21,22.80
2014,09,21,11,22,22.50
2014,09,21,11,23,22.40
2014,09,21,11,24,22.20
2014,09,21,11,25,22.00
2014,09,21,11,26,21.80
2014,09,21,11,27,21.70
2014,09,21,11,28,21.60
2014,09,21,11,29,21.50
2014,09,21,11,30,21.50
2014,09,21,11,31,21.40
2014,09,21,11,32,21.40
2014,09,21,11,33,21.40
2014,09,21,11,34,21.40
2014,09,21,11,35,21.40
2014,09,21,11,36,21.40
2014,09,21,11,37,21.40
2014,09,21,11,38,21.60
2014,09,21,11,39,21.80
2014,09,21,11,40,21.80
2014,09,21,11,41,21.80
2014,09,21,11,42,21.80
2014,09,21,11,43,21.80
2014,09,21,11,44,21.70
2014,09,21,11,45,21.70
2014,09,21,11,46,21.70
2014,09,21,11,47,21.90
2014,09,21,11,48,22.40
2014,09,21,11,49,22.60
2014,09,21,11,50,22.60
2014,09,21,11,51,22.50
2014,09,21,11,52,22.60
2014,09,21,11,53,22.50
2014,09,21,11,54,22.40
2014,09,21,11,55,22.20
2014,09,21,11,56,22.00
2014,09,21,11,57,21.90
2014,09,21,11,58,21.90
2014,09,21,11,59,22.30
2014,09,21,12,00,22.90
2014,09,21,12,01,23.50
2014,09,21,12,02,23.70
2014,09,21,12,03,23.70
2014,09,21,12,04,23.90
2014,09,21,12,05,24.30
2014,09,21,12,06,24.60
2014,09,21,12,07,24.80
2014,09,21,12,08,24.80
2014,09,21,12,09,24.80
2014,09,21,12,10,24.70
2014,09,21,12,11,24.50
2014,09,21,12,12,24.30
2014,09,21,12,13,24.00
2014,09,21,12,14,23.70
2014,09,21,12,15,23.80
2014,09,21,12,16,24.00
2014,09,21,12,17,24.10
2014,09,21,12,18,24.30
2014,09,21,12,19,24.50
2014,09,21,12,20,24.70
2014,09,21,12,21,24.80
2014,09,21,12,22,25.00
2014,09,21,12,23,25.20
2014,09,21,12,24,25.20
2014,09,21,12,25,24.80
2014,09,21,12,26,24.40
2014,09,21,12,27,24.00
2014,09,21,12,28,23.50
2014,09,21,12,29,23.20
2014,09,21,12,30,22.80
2014,09,21,12,31,22.40
2014,09,21,12,32,22.10
2014,09,21,12,33,21.80
2014,09,21,12,34,21.60
2014,09,21,12,35,21.50
2014,09,21,12,36,21.40
2014,09,21,12,37,21.20
2014,09,21,12,38,21.20
2014,09,21,12,39,21.10
2014,09,21,12,40,21.10
2014,09,21,12,41,21.20
2014,09,21,12,42,21.40
2014,09,21,12,43,21.50
2014,09,21,12,44,21.60
2014,09,21,12,45,21.90
2014,09,21,12,46,22.60
2014,09,21,12,47,23.10
2014,09,21,12,48,23.30
2014,09,21,12,49,23.20
2014,09,21,12,50,23.10
2014,09,21,12,51,23.10
2014,09,21,12,52,23.30
2014,09,21,12,53,23.70
2014,09,21,12,54,24.10
2014,09,21,12,55,24.30
2014,09,21,12,56,24.40
2014,09,21,12,57,24.50
2014,09,21,12,58,24.70
2014,09,21,12,59,24.90
2014,09,21,13,00,24.80
2014,09,21,13,01,24.70
2014,09,21,13,02,24.50
2014,09,21,13,03,24.20
2014,09,21,13,04,24.10
2014,09,21,13,05,23.80
2014,09,21,13,06,23.70
2014,09,21,13,07,23.50
2014,09,21,13,08,23.30
2014,09,21,13,09,23.20
2014,09,21,13,10,23.00
2014,09,21,13,11,22.80
2014,09,21,13,12,22.70
2014,09,21,13,13,22.60
2014,09,21,13,14,22.40
2014,09,21,13,15,22.20
2014,09,21,13,16,22.10
2014,09,21,13,17,22.00
2014,09,21,13,18,22.00
2014,09,21,13,19,22.10
2014,09,21,13,20,22.10
2014,09,21,13,21,22.20
2014,09,21,13,22,22.30
2014,09,21,13,23,22.40
2014,09,21,13,24,22.60
2014,09,21,13,25,22.80
2014,09,21,13,26,23.00
2014,09,21,13,27,23.10
2014,09,21,13,28,23.40
2014,09,21,13,29,23.50
2014,09,21,13,30,23.60
2014,09,21,13,31,23.70
2014,09,21,13,32,23.90
2014,09,21,13,33,23.90
2014,09,21,13,34,24.00
2014,09,21,13,35,24.10
2014,09,21,13,36,24.10
2014,09,21,13,37,24.20
2014,09,21,13,38,24.20
2014,09,21,13,39,24.30
2014,09,21,13,40,24.20
2014,09,21,13,41,24.20
2014,09,21,13,42,24.20
2014,09,21,13,43,24.30
2014,09,21,13,44,24.30
2014,09,21,13,45,24.40
2014,09,21,13,46,24.50
2014,09,21,13,47,24.50
2014,09,21,13,48,24.70
2014,09,21,13,49,24.80
2014,09,21,13,50,24.80
2014,09,21,13,51,24.80
2014,09,21,13,52,24.80
2014,09,21,13,53,24.70
2014,09,21,13,54,24.70
2014,09,21,13,55,24.70
2014,09,21,13,56,24.80
2014,09,21,13,57,24.80
2014,09,21,13,58,24.90
2014,09,21,13,59,24.90
2014,09,21,14,00,25.00
2014,09,21,14,01,25.10
2014,09,21,14,02,25.10
2014,09,21,14,03,25.20
2014,09,21,14,04,25.20
2014,09,21,14,05,25.20
2014,09,21,14,06,25.20
2014,09,21,14,07,25.30
2014,09,21,14,08,25.30
2014,09,21,14,09,25.30
2014,09,21,14,10,25.30
2014,09,21,14,11,25.30
2014,09,21,14,12,25.40
2014,09,21,14,13,25.40
2014,09,21,14,14,25.40
2014,09,21,14,15,25.40
2014,09,21,14,16,25.50
2014,09,21,14,17,25.60
2014,09,21,14,18,25.60
2014,09,21,14,19,25.60
2014,09,21,14,20,25.50
2014,09,21,14,21,25.40
2014,09,21,14,22,25.30
2014,09,21,14,23,25.30
2014,09,21,14,24,25.30
2014,09,21,14,25,25.30
2014,09,21,14,26,25.40
2014,09,21,14,27,25.40
2014,09,21,14,28,25.50
2014,09,21,14,29,25.50
2014,09,21,14,30,25.50
2014,09,21,14,31,25.60
2014,09,21,14,32,25.60
2014,09,21,14,33,25.50
2014,09,21,14,34,25.60
2014,09,21,14,35,25.60
2014,09,21,14,36,25.70
2014,09,21,14,37,25.70
2014,09,21,14,38,25.80
2014,09,21,14,39,25.80
2014,09,21,14,40,25.90
2014,09,21,14,41,25.90
2014,09,21,14,42,25.90
2014,09,21,14,43,25.90
2014,09,21,14,44,26.00
2014,09,21,14,45,26.10
2014,09,21,14,46,26.10
2014,09,21,14,47,26.20
2014,09,21,14,48,26.20
2014,09,21,14,49,26.10
2014,09,21,14,50,26.10
2014,09,21,14,51,26.10
2014,09,21,14,52,26.10
2014,09,21,14,53,26.00
2014,09,21,14,54,25.90
2014,09,21,14,55,26.00
2014,09,21,14,56,26.00
2014,09,21,14,57,25.90
2014,09,21,14,58,25.90
2014,09,21,14,59,25.90
2014,09,21,15,00,25.90
2014,09,21,15,01,25.80
2014,09,21,15,02,25.80
2014,09,21,15,03,25.80
2014,09,21,15,04,25.80
2014,09,21,15,05,25.80
2014,09,21,15,06,25.80
2014,09,21,15,07,25.90
2014,09,21,15,08,26.00
2014,09,21,15,09,26.10
2014,09,21,15,10,26.20
2014,09,21,15,11,26.30
2014,09,21,15,12,26.30
2014,09,21,15,13,26.40
2014,09,21,15,14,26.40
2014,09,21,15,15,26.40
2014,09,21,15,16,26.40
2014,09,21,15,17,26.40
2014,09,21,15,18,26.50
2014,09,21,15,19,26.60
2014,09,21,15,20,26.70
2014,09,21,15,21,26.70
2014,09,21,15,22,26.80
2014,09,21,15,23,26.80
2014,09,21,15,24,26.80
2014,09,21,15,25,26.80
2014,09,21,15,26,26.80
2014,09,21,15,27,26.80
2014,09,21,15,28,26.80
2014,09,21,15,29,26.80
2014,09,21,15,30,26.80
2014,09,21,15,31,26.80
2014,09,21,15,32,26.80
2014,09,21,15,33,26.80
2014,09,21,15,34,26.80
2014,09,21,15,35,26.80
2014,09,21,15,36,26.80
2014,09,21,15,37,26.90
2014,09,21,15,38,27.00
2014,09,21,15,39,27.10
2014,09,21,15,40,27.10
2014,09,21,15,41,27.10
2014,09,21,15,42,27.10
2014,09,21,15,43,27.10
2014,09,21,15,44,27.10
2014,09,21,15,45,27.00
2014,09,21,15,46,26.90
2014,09,21,15,47,27.00
2014,09,21,15,48,27.10
2014,09,21,15,49,27.10
2014,09,21,15,50,27.10
2014,09,21,15,51,27.00
2014,09,21,15,52,27.00
2014,09,21,15,53,27.00
2014,09,21,15,54,26.90
2014,09,21,15,55,26.90
2014,09,21,15,56,26.90
2014,09,21,15,57,26.90
2014,09,21,15,58,26.90
2014,09,21,15,59,26.90
2014,09,21,16,00,26.90
2014,09,21,16,01,26.90
2014,09,21,16,02,26.90
2014,09,21,16,03,26.80
2014,09,21,16,04,26.80
2014,09,21,16,05,26.80
2014,09,21,16,06,26.70
2014,09,21,16,07,26.70
2014,09,21,16,08,26.70
2014,09,21,16,09,26.70
2014,09,21,16,10,26.70
2014,09,21,16,11,26.70
2014,09,21,16,12,26.70
2014,09,21,16,13,26.70
2014,09,21,16,14,26.80
2014,09,21,16,15,26.80
2014,09,21,16,16,26.70
2014,09,21,16,17,26.70
2014,09,21,16,18,26.70
2014,09,21,16,19,26.70
2014,09,21,16,20,26.70
2014,09,21,16,21,26.70
2014,09,21,16,22,26.70
2014,09,21,16,23,26.70
2014,09,21,16,24,26.60
2014,09,21,16,25,26.50
2014,09,21,16,26,26.50
2014,09,21,16,27,26.40
2014,09,21,16,28,26.30
2014,09,21,16,29,26.30
2014,09,21,16,30,26.30
2014,09,21,16,31,26.20
2014,09,21,16,32,26.20
2014,09,21,16,33,26.20
2014,09,21,16,34,26.20
2014,09,21,16,35,26.10
2014,09,21,16,36,26.10
2014,09,21,16,37,26.20
2014,09,21,16,38,26.20
2014,09,21,16,39,26.20
2014,09,21,16,40,26.20
2014,09,21,16,41,26.30
2014,09,21,16,42,26.30
2014,09,21,16,43,26.40
2014,09,21,16,44,26.40
2014,09,21,16,45,26.50
2014,09,21,16,46,26.60
2014,09,21,16,47,26.60
2014,09,21,16,48,26.60
2014,09,21,16,49,26.70
2014,09,21,16,50,26.70
2014,09,21,16,51,26.70
2014,09,21,16,52,26.70
2014,09,21,16,53,26.80
2014,09,21,16,54,26.80
2014,09,21,16,55,26.80
2014,09,21,16,56,26.90
2014,09,21,16,57,26.90
2014,09,21,16,58,26.90
2014,09,21,16,59,26.80
2014,09,21,17,00,26.80
2014,09,21,17,01,26.70
2014,09,21,17,02,26.70
2014,09,21,17,03,26.60
2014,09,21,17,04,26.50
2014,09,21,17,05,26.50
2014,09,21,17,06,26.50
2014,09,21,17,07,26.50
2014,09,21,17,08,26.40
2014,09,21,17,09,26.40
2014,09,21,17,10,26.40
2014,09,21,17,11,26.30
2014,09,21,17,12,26.30
2014,09,21,17,13,26.30
2014,09,21,17,14,26.30
2014,09,21,17,15,26.30
2014,09,21,17,16,26.30
2014,09,21,17,17,26.40
2014,09,21,17,18,26.40
2014,09,21,17,19,26.40